Location: Poughquag
(41.6090°N, 73.6820°W)
Time: 03:38:31
(UTC-04:00)

Transit 2A Rocket - Pass Details

Date: 06 June 2020
Orbit: 584 x 919 km, 66.7° (Epoch: 06 July)

Event Time Altitude Azimuth Distance (km) Brightness Sun altitude
Rises 05:58:10 0° 333° (NNW) 3,518 8.4 5.3°
Reaches altitude 10° 06:00:45 10° 338° (NNW) 2,597 7.8 5.7°
Maximum altitude 06:06:42 52° 55° (NE) 1,127 6.7 6.7°
Drops below altitude 10° 06:12:38 10° 131° (SE) 2,586 8.1 7.7°
Sets 06:15:11 0° 136° (SE) 3,501 8.7 8.1°
